Time,TemperatureF,DewpointF,PressureIn,WindDirection,WindDirectionDegrees,WindSpeedMPH,WindSpeedGustMPH,Humidity,HourlyPrecipIn,Conditions,Clouds,dailyrainin,SoftwareType,DateUTC
2013-07-06 00:00:00,83.0,75.0,-100.00,SE,126,15.0,-999.0,76,0.00,,,-99.99,,2013-07-06 05:00:00,
2013-07-06 00:22:00,83.0,75.0,-100.00,SE,126,15.0,-999.0,76,0.00,,,-99.99,,2013-07-06 05:22:00,
2013-07-06 00:33:00,83.0,75.0,-100.00,SE,126,15.0,-999.0,76,0.00,,,-99.99,,2013-07-06 05:33:00,
2013-07-06 00:42:00,83.0,75.0,-100.00,SE,126,15.0,-999.0,76,0.00,,,-99.99,,2013-07-06 05:42:00,
2013-07-06 00:53:00,83.0,75.0,-100.00,SE,126,15.0,-999.0,76,0.00,,,-99.99,,2013-07-06 05:53:00,
2013-07-06 01:00:00,83.0,75.0,-100.00,ESE,121,10.0,-999.0,76,0.00,,,-99.99,,2013-07-06 06:00:00,
2013-07-06 01:22:00,83.0,75.0,-100.00,ESE,121,10.0,-999.0,76,0.00,,,-99.99,,2013-07-06 06:22:00,
2013-07-06 01:34:00,83.0,75.0,-100.00,ESE,121,10.0,-999.0,76,0.00,,,-99.99,,2013-07-06 06:34:00,
2013-07-06 01:43:00,83.0,75.0,-100.00,ESE,121,10.0,-999.0,76,0.00,,,-99.99,,2013-07-06 06:43:00,
2013-07-06 01:53:00,83.0,75.0,-100.00,ESE,121,10.0,-999.0,76,0.00,,,-99.99,,2013-07-06 06:53:00,
2013-07-06 02:00:00,82.0,75.0,-100.00,SE,132,10.0,-999.0,77,0.00,,,-99.99,,2013-07-06 07:00:00,
2013-07-06 02:22:00,82.0,75.0,-100.00,SE,132,10.0,-999.0,77,0.00,,,-99.99,,2013-07-06 07:22:00,
2013-07-06 02:33:00,82.0,75.0,-100.00,SE,132,10.0,-999.0,77,0.00,,,-99.99,,2013-07-06 07:33:00,
2013-07-06 02:44:00,82.0,75.0,-100.00,SE,132,10.0,-999.0,77,0.00,,,-99.99,,2013-07-06 07:44:00,
2013-07-06 02:52:00,82.0,75.0,-100.00,SE,132,10.0,-999.0,77,0.00,,,-99.99,,2013-07-06 07:52:00,
2013-07-06 03:00:00,82.0,74.0,-100.00,SSE,151,8.0,-999.0,77,0.00,,,-99.99,,2013-07-06 08:00:00,
2013-07-06 03:21:00,82.0,74.0,-100.00,SSE,151,8.0,-999.0,77,0.00,,,-99.99,,2013-07-06 08:21:00,
2013-07-06 03:34:00,82.0,74.0,-100.00,SSE,151,8.0,-999.0,77,0.00,,,-99.99,,2013-07-06 08:34:00,
2013-07-06 03:43:00,82.0,74.0,-100.00,SSE,151,8.0,-999.0,77,0.00,,,-99.99,,2013-07-06 08:43:00,
2013-07-06 03:54:00,82.0,74.0,-100.00,SSE,151,8.0,-999.0,77,0.00,,,-99.99,,2013-07-06 08:54:00,
2013-07-06 04:00:00,82.0,75.0,-100.00,SE,128,7.0,-999.0,80,0.00,,,-99.99,,2013-07-06 09:00:00,
2013-07-06 04:22:00,82.0,75.0,-100.00,SE,128,7.0,-999.0,80,0.00,,,-99.99,,2013-07-06 09:22:00,
2013-07-06 04:33:00,82.0,75.0,-100.00,SE,128,7.0,-999.0,80,0.00,,,-99.99,,2013-07-06 09:33:00,
2013-07-06 04:43:00,82.0,75.0,-100.00,SE,128,7.0,-999.0,80,0.00,,,-99.99,,2013-07-06 09:43:00,
2013-07-06 04:53:00,82.0,75.0,-100.00,SE,128,7.0,-999.0,80,0.00,,,-99.99,,2013-07-06 09:53:00,
2013-07-06 05:00:00,80.0,77.0,-100.00,NNE,32,6.0,-999.0,89,0.00,,,-99.99,,2013-07-06 10:00:00,
2013-07-06 05:22:00,80.0,77.0,-100.00,NNE,32,6.0,-999.0,89,0.00,,,-99.99,,2013-07-06 10:22:00,
2013-07-06 05:33:00,80.0,77.0,-100.00,NNE,32,6.0,-999.0,89,0.00,,,-99.99,,2013-07-06 10:33:00,
2013-07-06 05:42:00,80.0,77.0,-100.00,NNE,32,6.0,-999.0,89,0.00,,,-99.99,,2013-07-06 10:42:00,
2013-07-06 05:53:00,80.0,77.0,-100.00,NNE,32,6.0,-999.0,89,0.00,,,-99.99,,2013-07-06 10:53:00,
2013-07-06 06:00:00,78.0,-99.9,-100.00,NE,35,8.0,-999.0,107,0.00,,,-99.99,,2013-07-06 11:00:00,
2013-07-06 06:22:00,78.0,-99.9,-100.00,NE,35,8.0,-999.0,107,0.00,,,-99.99,,2013-07-06 11:22:00,
2013-07-06 06:33:00,78.0,-99.9,-100.00,NE,35,8.0,-999.0,107,0.00,,,-99.99,,2013-07-06 11:33:00,
2013-07-06 06:43:00,78.0,-99.9,-100.00,NE,35,8.0,-999.0,107,0.00,,,-99.99,,2013-07-06 11:43:00,
2013-07-06 06:53:00,78.0,-99.9,-100.00,NE,35,8.0,-999.0,107,0.00,,,-99.99,,2013-07-06 11:53:00,
2013-07-06 07:22:00,78.0,-99.9,-100.00,NNE,33,7.0,-999.0,108,0.00,,,-99.99,,2013-07-06 12:22:00,
2013-07-06 07:34:00,78.0,-99.9,-100.00,NNE,33,7.0,-999.0,108,0.00,,,-99.99,,2013-07-06 12:34:00,
2013-07-06 07:43:00,78.0,-99.9,-100.00,NNE,33,7.0,-999.0,108,0.00,,,-99.99,,2013-07-06 12:43:00,
2013-07-06 07:52:00,78.0,-99.9,-100.00,NNE,33,7.0,-999.0,108,0.00,,,-99.99,,2013-07-06 12:52:00,
2013-07-06 08:22:00,79.0,-99.9,-100.00,NNE,29,7.0,-999.0,107,0.00,,,-99.99,,2013-07-06 13:22:00,
2013-07-06 08:33:00,79.0,-99.9,-100.00,NNE,29,7.0,-999.0,107,0.00,,,-99.99,,2013-07-06 13:33:00,
2013-07-06 08:43:00,79.0,-99.9,-100.00,NNE,29,7.0,-999.0,107,0.00,,,-99.99,,2013-07-06 13:43:00,
2013-07-06 09:00:00,82.0,76.0,-100.00,ENE,59,10.0,-999.0,82,0.00,,,-99.99,,2013-07-06 14:00:00,
2013-07-06 09:22:00,82.0,76.0,-100.00,ENE,59,10.0,-999.0,82,0.00,,,-99.99,,2013-07-06 14:22:00,
2013-07-06 09:34:00,82.0,76.0,-100.00,ENE,59,10.0,-999.0,82,0.00,,,-99.99,,2013-07-06 14:34:00,
2013-07-06 09:42:00,82.0,76.0,-100.00,ENE,59,10.0,-999.0,82,0.00,,,-99.99,,2013-07-06 14:42:00,
2013-07-06 09:53:00,82.0,76.0,-100.00,ENE,59,10.0,-999.0,82,0.00,,,-99.99,,2013-07-06 14:53:00,
2013-07-06 10:00:00,83.0,74.0,-100.00,East,84,10.0,-999.0,74,0.00,,,-99.99,,2013-07-06 15:00:00,
2013-07-06 10:22:00,83.0,74.0,-100.00,East,84,10.0,-999.0,74,0.00,,,-99.99,,2013-07-06 15:22:00,
2013-07-06 10:33:00,83.0,74.0,-100.00,East,84,10.0,-999.0,74,0.00,,,-99.99,,2013-07-06 15:33:00,
2013-07-06 10:43:00,83.0,74.0,-100.00,East,84,10.0,-999.0,74,0.00,,,-99.99,,2013-07-06 15:43:00,
2013-07-06 10:53:00,83.0,74.0,-100.00,East,84,10.0,-999.0,74,0.00,,,-99.99,,2013-07-06 15:53:00,
2013-07-06 11:00:00,84.0,74.0,-100.00,East,93,12.0,-999.0,73,0.00,,,-99.99,,2013-07-06 16:00:00,
2013-07-06 11:24:00,84.0,74.0,-100.00,East,93,12.0,-999.0,73,0.00,,,-99.99,,2013-07-06 16:24:00,
2013-07-06 12:00:00,84.0,74.0,-100.00,East,98,13.0,-999.0,71,0.00,,,-99.99,,2013-07-06 17:00:00,
2013-07-06 12:30:00,84.0,74.0,-100.00,East,98,13.0,-999.0,71,0.00,,,-99.99,,2013-07-06 17:30:00,
2013-07-06 12:42:00,84.0,74.0,-100.00,East,98,13.0,-999.0,71,0.00,,,-99.99,,2013-07-06 17:42:00,
2013-07-06 12:50:00,84.0,74.0,-100.00,East,98,13.0,-999.0,71,0.00,,,-99.99,,2013-07-06 17:50:00,
2013-07-06 13:00:00,85.0,73.0,-100.00,ESE,102,13.0,-999.0,68,0.00,,,-99.99,,2013-07-06 18:00:00,
2013-07-06 13:42:00,85.0,73.0,-100.00,ESE,102,13.0,-999.0,68,0.00,,,-99.99,,2013-07-06 18:42:00,
2013-07-06 14:29:00,85.0,73.0,-100.00,ESE,102,15.0,-999.0,67,0.00,,,-99.99,,2013-07-06 19:29:00,
2013-07-06 14:51:00,85.0,73.0,-100.00,ESE,102,15.0,-999.0,67,0.00,,,-99.99,,2013-07-06 19:51:00,
2013-07-06 15:00:00,85.0,74.0,-100.00,ESE,104,17.0,-999.0,69,0.00,,,-99.99,,2013-07-06 20:00:00,
2013-07-06 15:43:00,85.0,74.0,-100.00,ESE,104,17.0,-999.0,69,0.00,,,-99.99,,2013-07-06 20:43:00,
2013-07-06 16:00:00,85.0,75.0,-100.00,ESE,108,16.0,-999.0,70,0.00,,,-99.99,,2013-07-06 21:00:00,
2013-07-06 16:31:00,85.0,75.0,-100.00,ESE,108,16.0,-999.0,70,0.00,,,-99.99,,2013-07-06 21:31:00,
2013-07-06 16:42:00,85.0,75.0,-100.00,ESE,108,16.0,-999.0,70,0.00,,,-99.99,,2013-07-06 21:42:00,
2013-07-06 16:52:00,85.0,75.0,-100.00,ESE,108,16.0,-999.0,70,0.00,,,-99.99,,2013-07-06 21:52:00,
2013-07-06 17:00:00,85.0,76.0,-100.00,ESE,107,16.0,-999.0,74,0.00,,,-99.99,,2013-07-06 22:00:00,
2013-07-06 17:31:00,85.0,76.0,-100.00,ESE,107,16.0,-999.0,74,0.00,,,-99.99,,2013-07-06 22:31:00,
2013-07-06 17:42:00,85.0,76.0,-100.00,ESE,107,16.0,-999.0,74,0.00,,,-99.99,,2013-07-06 22:42:00,
2013-07-06 17:51:00,85.0,76.0,-100.00,ESE,107,16.0,-999.0,74,0.00,,,-99.99,,2013-07-06 22:51:00,
2013-07-06 18:00:00,85.0,76.0,-100.00,ESE,117,17.0,-999.0,74,0.00,,,-99.99,,2013-07-06 23:00:00,
2013-07-06 18:51:00,85.0,76.0,-100.00,ESE,117,17.0,-999.0,74,0.00,,,-99.99,,2013-07-06 23:51:00,
2013-07-06 19:00:00,84.0,77.0,-100.00,ESE,116,15.0,-999.0,77,0.00,,,-99.99,,2013-07-07 00:00:00,
2013-07-06 19:30:00,84.0,77.0,-100.00,ESE,116,15.0,-999.0,77,0.00,,,-99.99,,2013-07-07 00:30:00,
2013-07-06 19:51:00,84.0,77.0,-100.00,ESE,116,15.0,-999.0,77,0.00,,,-99.99,,2013-07-07 00:51:00,
2013-07-06 20:31:00,84.0,76.0,-100.00,ESE,114,16.0,-999.0,77,0.00,,,-99.99,,2013-07-07 01:31:00,
2013-07-06 20:41:00,84.0,76.0,-100.00,ESE,114,16.0,-999.0,77,0.00,,,-99.99,,2013-07-07 01:41:00,
2013-07-06 20:51:00,84.0,76.0,-100.00,ESE,114,16.0,-999.0,77,0.00,,,-99.99,,2013-07-07 01:51:00,
2013-07-06 21:00:00,83.0,78.0,-100.00,ESE,117,16.0,-999.0,82,0.00,,,-99.99,,2013-07-07 02:00:00,
2013-07-06 21:30:00,83.0,78.0,-100.00,ESE,117,16.0,-999.0,82,0.00,,,-99.99,,2013-07-07 02:30:00,
2013-07-06 21:38:00,83.0,78.0,-100.00,ESE,117,16.0,-999.0,82,0.00,,,-99.99,,2013-07-07 02:38:00,
2013-07-06 21:48:00,83.0,78.0,-100.00,ESE,117,16.0,-999.0,82,0.00,,,-99.99,,2013-07-07 02:48:00,
2013-07-06 22:00:00,83.0,78.0,-100.00,SE,136,15.0,-999.0,84,0.00,,,-99.99,,2013-07-07 03:00:00,
2013-07-06 22:29:00,83.0,78.0,-100.00,SE,136,15.0,-999.0,84,0.00,,,-99.99,,2013-07-07 03:29:00,
2013-07-06 22:38:00,83.0,78.0,-100.00,SE,136,15.0,-999.0,84,0.00,,,-99.99,,2013-07-07 03:38:00,
2013-07-06 22:48:00,83.0,78.0,-100.00,SE,136,15.0,-999.0,84,0.00,,,-99.99,,2013-07-07 03:48:00,
2013-07-06 23:00:00,83.0,77.0,-100.00,SE,144,11.0,-999.0,82,0.00,,,-99.99,,2013-07-07 04:00:00,
2013-07-06 23:21:00,83.0,77.0,-100.00,SE,144,11.0,-999.0,82,0.00,,,-99.99,,2013-07-07 04:21:00,
2013-07-06 23:31:00,83.0,77.0,-100.00,SE,144,11.0,-999.0,82,0.00,,,-99.99,,2013-07-07 04:31:00,
2013-07-06 23:41:00,83.0,77.0,-100.00,SE,144,11.0,-999.0,82,0.00,,,-99.99,,2013-07-07 04:41:00,
2013-07-06 23:51:00,83.0,77.0,-100.00,SE,144,11.0,-999.0,82,0.00,,,-99.99,,2013-07-07 04:51:00,